Location: Newark
(48.6461°N, 4.3644°W)
Time: 12:40:08
(UTC+00:00)

SR - Visible Passes

Search period start: 27 January 2020 00:00
Search period end: 06 February 2020 00:00
Orbit: 574 x 882 km, 66.7° (Epoch: 26 January)

Date Brightness Start Highest point End Pass type
(mag) Time Alt. Az. Time Alt. Az. Time Alt. Az.
27 Jan ? 04:29:32 19° N 04:30:42 20° NNE 04:34:40 10° ENE visible
27 Jan ? 06:08:57 13° NNW 06:14:01 62° NE 06:19:10 10° SE visible
28 Jan ? 03:41:24 15° NNE 03:41:24 15° NNE 03:43:36 10° NE visible
28 Jan ? 05:20:49 21° NNW 05:24:05 39° NE 05:29:00 10° ESE visible
28 Jan ? 07:01:01 10° NW 07:06:19 46° WSW 07:11:10 10° S visible
29 Jan ? 04:32:45 24° NNE 04:33:57 26° NE 04:38:26 10° E visible
29 Jan ? 06:12:10 16° NW 06:16:47 82° WSW 06:21:55 10° SSE visible
30 Jan ? 03:44:45 18° NE 03:44:45 18° NE 03:47:34 10° ENE visible
30 Jan ? 05:24:11 28° NNW 05:27:02 59° NE 05:32:08 10° SE visible
30 Jan ? 07:04:13 10° NW 07:08:43 26° WSW 07:12:55 10° SSW visible
31 Jan ? 04:36:17 35° NNE 04:37:04 37° NE 04:41:57 10° ESE visible
31 Jan ? 06:15:44 19° NW 06:19:22 48° WSW 06:24:14 10° S visible
01 Feb ? 03:48:31 22° ENE 03:48:31 22° ENE 03:51:21 10° E visible
01 Feb ? 05:27:57 43° NW 05:29:48 86° WSW 05:34:55 10° SSE visible
01 Feb ? 07:08:04 10° WNW 07:10:57 15° WSW 07:13:44 10° SW visible
02 Feb ? 04:40:18 56° ENE 04:40:18 56° ENE 04:45:06 10° SE visible
02 Feb ? 06:19:46 22° WNW 06:21:46 28° WSW 06:26:01 10° SSW visible
02 Feb ? 19:09:16 10° SSE 19:09:54 12° SE 19:09:54 12° SE visible
02 Feb ? 20:48:38 10° SSW 20:49:24 14° SSW 20:49:24 14° SSW visible
03 Feb ? 03:52:48 22° E 03:52:48 22° E 03:54:52 10° ESE visible
03 Feb ? 05:32:16 50° WSW 05:32:25 51° WSW 05:37:17 10° SSE visible
03 Feb ? 19:59:14 10° SSW 20:02:27 32° S 20:02:27 32° S visible
03 Feb ? 21:41:47 10° WSW 21:41:57 11° WSW 21:41:57 11° WSW visible
04 Feb ? 04:44:55 38° SE 04:44:55 38° SE 04:47:55 10° SSE visible
04 Feb ? 06:24:24 15° WSW 06:24:24 15° WSW 06:26:58 10° SW visible
04 Feb ? 19:10:25 10° S 19:15:25 31° ESE 19:15:25 31° ESE visible
04 Feb ? 20:51:30 10° SW 20:54:55 35° WSW 20:54:55 35° WSW visible
05 Feb ? 03:57:41 12° SE 03:57:41 12° SE 03:58:04 10° SE visible
05 Feb ? 05:37:11 20° SSW 05:37:11 20° SSW 05:39:08 10° S visible
05 Feb ? 18:22:31 10° SE 18:26:15 18° ESE 18:28:16 15° E visible
05 Feb ? 20:01:39 10° SSW 20:07:35 86° SE 20:07:46 84° ENE visible
05 Feb ? 21:45:24 10° W 21:47:15 18° W 21:47:15 18° W visible
